sat.trackr.live / text

‹ back to catalog

CAS500-1

NORAD 47932 · 2021-022A

PAYLOAD ACTIVE UNKNOWN

§ Identity

Operator
Country
SKOR
Launch date
2021-03-22
Launch site
TYMSC
Launch vehicle
Mass (kg)
RCS (m²)

Purposes: earth_obs

External: N2YO · Heavens-Above · Gunter

§ Orbital elements

Epoch: 2026-05-25T05:19:57.427680Z

Period
94.73 min
Inclination
97.3926°
Eccentricity
0.0006074
Mean motion
15.20179962 rev/d
Perigee alt
501.1 km
Apogee alt
509.5 km
Semi-major
6,883.4 km
B*
2.7505e-4
RAAN
40.9365°
Arg perigee
27.7582°
Mean anomaly
332.3976°
Rev number
28,727

§ Raw data

CAS500-11 47932U 21022A   26145.22219245  .00005890  00000+0  27505-3 0  99902 47932  97.3926  40.9365 0006074  27.7582 332.3976 15.20179962287279

JSON: /api/v1/satellites/47932 · /tle

For live sub-satellite position, see the globe view (requires WebGL).

§ Visibility from observer

Set your observer location to see the next 7 days of passes ≥ 10°. The values pass through the URL so the page stays shareable.

No JS? Fill the form by hand. The geolocation button needs JavaScript.

§ Radio — SatNOGS DB

ModeDescriptionDownlinkUplink
BPSK S-band telemetry 2.266 GHz

1 transmitter · refreshed weekly from db.satnogs.org